User: anonymous   Login
Location: Newark
(30.1000°N, 109.4667°E)
Time: 19:07:25
(UTC+00:00)
Language:

SR - Orbit

View from above orbital plane
View from above orbital plane
View from above satellite
View from above satellite

Ground track
Ground track

The orbit data is extracted from the following two-line orbital elements,

1    46U 60007B   20052.35512704 -.00000059 +00000-0 +11587-4 0  9990
2    46 066.6920 002.9075 0214855 220.0884 138.4203 14.49274520122142
Epoch (UTC): 21 February 2020 08:31:22
Eccentricity: 0.0214855
inclination: 66.6920°
perigee height: 575 km
apogee height: 881 km
right ascension of ascending node: 2.9075°
argument of perigee: 220.0884°
revolutions per day: 14.49274520
mean anomaly at epoch: 138.4203°
orbit number at epoch: 12214

The dashed part of the orbit path shows where the satellite is in the earth's shadow,  

DLR